一网星座-0457星 (ONEWEB-0457 )

导读

ONEWEB-0457是英国OneWeb卫星星座的一员,于北京时间2022年2月10日发射入轨,运行在近地轨道,属于低轨宽带通信卫星。OneWeb星座计划打造由超600颗卫星组成的全球卫星互联网网络,ONEWEB-0457的入轨,助力拓展星座覆盖范围,为全球偏远地区、海上航空等场景提供高速低延迟的网络连接服务,推动全球互联基础设施建设。

基本信息
目录编号:
51647
目录名称:
ONEWEB-0457
国际标识:
2022-012AB
轨道中心:
EARTH
卫星名称:
一网星座-0457星
卫星全名:
一网星座-0457星 (ONEWEB-0457 )
卫星状态:
在轨 (已飞行1585 天)
发射日期:
2022-02-10 UTC
国别 :
英国 (GB)
星等 :
--
轨道信息
数据来源 国际轨道数据 AOE轨道数据
星历时间 2026-06-14T05:12:45+0800
14小时前
查看轨道信息
2026-06-13T01:00:00+0800
1天前
查看轨道信息
半长轴 7599.869km 7599.861km
偏心率 0.0002144 0.0002358
轨道倾角 87.883° 87.882°
近地点辐角 89.356° 72.248°
升交点赤经 36.930° 37.163°
平近点角 270.782° 145.732°
近地点 1220.102km 1219.931km
远地点 1223.362km 1223.517km
周期 109.893分钟 109.893分钟
每日圈数 13.103691 13.103713
详细信息
平衡模式:
三轴稳定
覆盖范围:
全球
运营商:
一网卫星公司
运营商所在国:
英国
制造商(研发单位):
一网卫星公司
制造商所在国:
英国
使用方式:
暂无
卫星简介
OneWeb卫星网络由648颗重约125公斤的微型卫星组成,运行在1200公里的轨道上。 每颗卫星都能够提供至少每秒8千兆位的吞吐量,以使用其高吞吐量的Ku频段有效载荷为家庭和移动平台提供互联网接入。该卫星仍在工作。
2D轨道图
3D轨道图
轨道高度分析图
轨道倾角分析图
轨道综合分析图
查看轨道综合分析图